Wind_Speed
10 9 9 10 5 8 9 7 6 5 4 11 13 8 4 4 4 3 9 8 8 10 10 9 10 8 9 11 10 9 10 10 10 8 7 6 5 4 3 1 2 4 6 9 9 10 12 12 13
10 10 10 11 7 14 12 6 6 7 10 14 16 8 6 2 2 5 10 7 7 8 10 9 9 7 6 6 9 9 8 9 10 9 9 8 7 6 5 3 2 2 4 7 8 9 11 12 13
11 11 10 7 10 13 9 5 5 12 15 17 9 9 6 7 5 10 9 9 9 8 8 8 8 6 5 5 5 7 8 8 9 9 9 9 9 8 7 5 4 3 5 5 7 9 10 12 13
13 12 10 7 11 7 8 3 12 11 13 17 9 5 9 12 9 10 11 9 7 6 6 5 5 5 3 4 5 5 6 8 9 9 10 10 10 9 8 7 6 5 5 6 7 9 9 11 12
14 12 10 11 11 7 4 11 14 9 12 9 12 6 11 12 12 12 10 8 7 5 3 3 2 2 3 4 5 6 7 7 8 10 11 11 11 11 11 9 8 7 6 6 7 8 10 9 11
10 13 12 15 11 8 5 11 10 8 11 12 11 9 13 15 14 14 13 11 9 7 5 4 2 2 5 6 7 8 8 10 11 11 12 12 13 13 13 11 10 9 8 7 7 8 9 10 11
10 13 12 13 13 10 7 10 7 8 10 11 17 10 15 18 17 16 15 13 11 9 7 5 1 2 6 8 9 10 10 11 12 13 14 15 15 15 15 14 13 12 11 9 9 8 8 8 9
12 11 12 16 14 10 8 7 13 9 7 17 19 10 10 21 20 18 15 12 10 9 6 5 4 5 6 8 9 11 12 13 13 14 16 17 17 17 17 17 15 14 13 12 10 10 10 9 9
16 10 14 15 15 12 9 9 11 15 7 20 22 18 20 20 19 17 16 15 14 12 9 8 8 8 7 8 9 11 13 14 16 17 17 18 19 19 18 18 17 16 15 15 13 12 11 11 10
10 11 12 13 14 11 11 10 8 10 9 14 20 21 20 20 19 14 10 10 14 16 14 14 13 12 12 12 9 10 10 13 15 18 19 19 21 21 21 20 20 19 17 16 16 13 13 13 11
9 9 11 12 10 11 11 11 10 10 11 12 13 21 21 21 21 20 19 15 12 14 19 19 18 18 16 16 15 15 14 15 14 17 20 21 21 23 23 23 22 21 20 19 17 16 14 13 11
6 9 9 9 10 9 9 12 13 15 14 18 22 22 21 23 23 24 24 18 18 19 25 24 22 22 22 20 20 21 20 19 17 17 20 22 20 22 24 24 24 23 22 21 20 19 17 15 14
6 9 9 9 10 10 11 10 12 14 17 22 22 23 26 29 31 31 31 31 30 26 28 28 26 24 24 23 25 27 23 23 22 19 22 23 22 22 23 25 25 25 25 24 22 21 20 18 17
10 8 8 7 7 9 9 9 10 12 16 16 17 16 18 19 20 22 21 20 23 24 26 27 29 29 26 26 25 27 28 26 26 23 24 25 26 24 25 25 26 26 26 27 24 24 22 21 20
9 7 9 8 8 7 7 12 12 12 15 14 14 16 16 19 19 19 20 20 17 15 14 14 17 19 23 31 33 29 26 29 29 27 25 27 28 28 28 27 27 27 28 29 27 26 25 24 22
8 10 13 13 9 11 8 11 12 12 14 18 21 21 22 22 26 27 25 20 16 15 13 11 9 13 16 19 23 26 27 28 28 29 28 28 29 27 30 30 29 28 29 30 31 28 27 26 25
10 11 13 11 10 11 11 12 14 12 17 21 25 25 24 23 25 29 27 25 21 18 15 13 8 9 12 14 18 20 22 21 25 27 24 27 24 24 22 29 29 32 29 32 32 32 29 28 28
10 12 12 13 10 11 16 20 18 16 17 20 20 19 18 19 20 25 30 32 27 24 20 16 11 8 11 10 8 13 21 25 25 23 23 27 23 22 23 23 36 33 29 30 32 33 33 30 30
11 13 14 14 14 15 17 20 20 18 18 16 15 16 14 12 11 14 26 30 31 28 25 21 17 14 13 15 11 10 8 12 23 29 29 28 27 28 29 28 25 25 25 29 34 32 33 34 33
12 15 16 15 15 15 17 23 22 22 20 17 13 13 12 11 9 8 12 21 22 29 28 23 20 19 16 16 15 14 12 10 10 15 18 22 26 27 30 31 30 26 31 34 28 35 35 35 33
13 16 15 16 16 19 20 25 20 13 14 17 20 19 16 15 15 15 14 15 19 24 26 25 21 19 19 16 18 18 17 15 10 10 13 17 19 19 21 23 26 26 26 31 36 36 36 36 31
15 13 16 17 17 19 8 16 14 17 20 23 23 17 16 18 17 18 17 18 18 24 30 26 23 20 21 20 21 18 18 16 12 10 9 9 11 16 20 22 23 24 25 26 28 29 28 33 33
16 13 15 17 20 21 21 18 18 13 12 12 16 16 16 17 15 13 17 18 17 17 24 25 23 22 21 20 20 17 15 15 17 15 14 14 16 17 18 19 23 23 21 23 25 28 28 23 25
14 16 18 17 19 21 26 25 15 16 12 13 14 14 15 17 16 16 17 17 17 20 23 24 25 22 19 20 21 20 19 20 20 22 21 21 22 23 22 21 22 24 25 23 23 25 28 28 30
16 17 16 16 12 12 4 10 21 7 9 12 13 14 16 16 16 17 18 20 22 23 24 24 23 21 22 22 23 23 24 24 26 27 28 27 28 28 27 25 27 26 27 26 28 28 27 31 31
18 18 20 14 12 11 7 9 9 12 18 15 16 16 17 19 16 19 20 18 19 23 24 25 24 24 24 24 25 27 28 30 30 32 32 32 32 32 31 29 30 30 30 30 28 30 28 28 33
20 20 23 29 30 23 30 31 21 20 20 16 18 18 20 18 24 26 25 23 23 23 22 22 23 24 26 26 23 23 27 31 34 34 32 32 34 34 35 34 33 33 32 33 32 30 30 28 28
25 24 19 22 16 22 22 24 19 9 16 15 17 19 20 21 21 25 27 29 29 27 26 25 25 28 32 31 29 28 30 32 35 35 34 33 31 32 32 33 35 37 36 34 37 33 31 31 27
24 26 28 27 31 17 19 22 10 8 16 18 17 18 19 22 20 19 17 23 30 32 32 33 32 32 35 36 36 35 33 36 38 38 37 35 35 35 34 32 30 33 38 38 37 37 33 33 33
27 32 29 29 23 33 35 36 27 24 18 19 15 17 16 18 21 23 25 31 39 38 37 35 34 36 36 40 40 42 39 40 41 40 40 37 36 38 38 36 33 32 34 39 41 40 39 36 35
Wind_Direction
201 194 185 187 198 217 210 207 205 209 220 187 167 137 139 81 71 140 139 126 124 105 102 111 117 128 141 145 143 149 160 172 176 176 184 193 203 204 198 239 45 21 20 30 38 37 29 24 27
189 181 172 177 216 213 185 207 203 233 206 180 164 143 139 87 127 127 142 134 120 109 101 97 100 110 123 139 144 152 166 180 185 190 196 202 215 221 219 235 289 347 3 19 19 23 24 18 22
186 179 163 202 223 229 173 196 227 196 189 167 179 154 159 195 196 149 143 134 123 108 102 105 108 113 121 133 149 161 171 188 198 204 206 212 222 229 234 234 265 297 327 1 5 5 14 15 14
184 182 193 198 208 206 184 205 178 169 188 184 169 180 192 181 176 154 148 147 145 123 109 104 109 118 122 142 159 176 188 195 209 216 219 222 228 235 243 244 251 273 300 329 348 348 5 8 12
185 187 209 203 195 192 176 179 175 179 178 177 174 201 186 180 173 168 169 165 160 161 185 182 171 172 184 178 183 191 199 209 220 226 230 232 235 239 245 248 251 263 281 302 324 335 345 3 7
191 187 208 197 195 184 167 176 156 165 170 196 189 168 186 188 187 182 187 188 194 202 206 190 171 251 254 231 213 207 206 211 215 225 234 238 240 242 246 251 254 262 270 284 299 318 332 348 355
190 203 220 201 190 171 180 164 150 157 172 187 194 178 192 194 194 197 201 202 205 204 207 203 164 300 261 250 240 233 225 221 222 224 227 232 239 243 247 249 253 259 268 275 287 301 315 331 347
189 189 206 194 195 196 189 169 176 155 191 195 190 186 184 205 207 205 207 216 227 230 220 231 252 305 270 246 252 249 240 235 232 229 230 233 237 241 246 252 254 258 265 274 282 295 307 321 333
196 202 208 208 199 208 189 183 200 201 180 200 202 205 219 222 220 222 229 235 233 233 239 249 248 265 280 264 280 261 254 248 240 235 234 234 237 241 245 250 255 257 262 270 276 285 297 306 318
183 208 209 197 196 195 203 184 201 197 209 212 213 218 220 222 224 224 230 234 248 251 251 253 257 263 264 264 267 256 263 261 252 241 236 235 237 238 242 246 251 256 260 263 271 278 288 299 309
206 213 204 194 195 192 213 220 220 207 224 223 219 221 221 225 231 235 235 236 235 245 249 252 255 261 260 249 242 246 255 258 256 251 239 236 237 238 240 245 249 253 256 259 263 271 280 290 298
176 182 176 203 213 221 225 227 235 231 224 228 227 234 238 237 238 238 238 239 243 247 252 256 248 240 247 249 239 239 248 253 249 254 244 239 238 239 240 242 246 250 253 258 263 268 275 281 287
183 192 205 220 228 230 233 243 241 237 230 241 240 242 243 245 247 248 247 246 245 246 256 258 255 250 245 246 241 238 246 248 246 252 244 236 236 236 238 241 243 247 252 254 257 262 269 276 282
213 207 217 227 231 234 233 250 231 229 242 239 240 239 243 246 247 248 250 252 252 251 249 250 249 245 242 242 242 240 245 245 248 250 244 235 236 235 233 236 240 243 248 255 256 260 264 270 277
222 222 223 215 219 228 234 244 238 229 242 240 252 256 254 256 250 249 254 251 246 234 229 246 254 256 246 244 244 245 243 246 249 245 247 242 238 243 232 234 234 242 245 251 255 258 261 267 271
220 221 218 223 215 233 240 248 234 244 249 255 255 253 254 254 254 250 253 249 235 224 239 246 264 248 232 241 241 238 239 243 249 248 251 242 245 243 254 238 236 238 244 247 253 255 258 263 268
224 236 221 224 226 227 238 248 253 254 265 265 257 257 259 257 253 249 243 235 227 225 233 236 254 216 237 240 240 240 236 235 241 243 246 239 244 248 249 250 241 238 239 247 249 254 255 260 264
235 235 235 236 248 252 258 262 265 267 270 273 266 254 252 253 260 252 235 229 226 225 228 222 236 231 212 237 268 246 245 242 241 241 239 239 246 239 250 249 241 240 245 244 248 251 255 253 261
249 252 252 252 253 270 268 265 264 265 270 272 257 251 232 242 249 254 233 224 227 226 224 227 230 238 239 243 263 277 249 247 243 245 250 251 252 253 257 264 264 253 266 244 247 249 251 254 252
253 254 258 265 268 265 276 274 269 268 259 245 236 233 237 233 236 243 226 219 218 223 226 228 227 231 237 243 248 256 262 276 263 252 252 252 254 258 258 257 260 253 255 267 259 251 249 250 251
256 256 263 269 272 276 283 285 274 259 223 236 241 237 237 233 235 241 243 208 211 213 218 225 226 228 232 240 243 253 263 263 255 244 241 248 250 247 251 257 256 259 259 252 256 256 259 252 250
266 269 270 272 274 274 268 284 263 266 258 246 236 235 232 240 246 242 237 216 224 234 226 220 220 226 230 236 239 245 257 253 249 252 250 270 266 261 259 260 263 259 261 261 259 260 258 255 259
269 269 274 270 270 275 262 260 282 238 243 226 206 217 232 238 234 224 210 213 220 215 203 206 219 227 229 232 231 239 244 246 250 265 270 270 278 280 282 274 260 263 265 264 262 261 262 253 247
258 275 278 267 266 260 258 242 264 239 239 215 211 213 222 224 220 208 199 200 199 201 208 215 219 222 225 231 236 244 255 257 257 261 269 270 275 279 279 272 266 262 259 261 264 264 253 250 249
260 260 260 244 219 252 215 247 234 236 218 210 210 213 209 214 213 214 211 208 208 208 207 210 215 221 226 230 239 249 256 260 263 266 268 271 274 275 274 265 264 265 264 266 265 264 261 252 252
255 249 246 274 267 267 197 245 257 244 228 231 225 219 213 215 209 218 218 221 222 224 224 226 230 233 237 243 247 252 256 261 265 266 268 272 273 277 274 271 266 262 259 259 267 267 263 259 253
254 241 262 268 267 272 264 267 261 248 254 231 222 217 216 214 223 229 232 235 236 237 239 243 249 255 255 251 257 267 271 266 261 263 265 271 278 280 278 275 268 263 258 256 261 267 262 260 256
241 258 243 239 262 261 260 255 255 248 225 236 230 218 220 225 224 231 237 238 238 240 242 249 258 262 261 248 257 274 269 258 257 260 264 271 279 282 280 276 270 264 259 253 253 258 263 257 258
249 243 238 254 257 273 273 268 268 235 239 238 227 230 229 229 229 235 240 242 238 240 246 257 261 260 254 256 263 271 268 263 260 261 266 272 277 281 285 282 278 265 259 253 251 252 254 259 256
254 255 252 251 257 250 257 264 265 274 254 233 225 222 230 226 234 244 257 251 249 253 259 256 254 257 259 264 264 267 262 260 259 261 264 270 276 283 287 285 281 272 261 255 249 250 250 254 258
Height
3165 3168 3170 3172 3179 3174 3171 3174 3172 3175 3175 3172 3173 3176 3179 3177 3178 3183 3180 3180 3181 3180 3181 3182 3183 3184 3186 3187 3188 3190 3192 3194 3196 3197 3199 3199 3200 3201 3201 3201 3201 3201 3201 3201 3200 3198 3197 3195 3193
3165 3167 3169 3171 3174 3170 3169 3172 3173 3173 3172 3172 3173 3175 3178 3178 3177 3177 3180 3180 3181 3181 3182 3183 3184 3186 3188 3189 3189 3191 3193 3196 3197 3198 3200 3200 3200 3201 3202 3202 3202 3202 3202 3202 3201 3199 3198 3196 3194
3164 3166 3170 3172 3170 3167 3167 3171 3170 3170 3171 3172 3176 3174 3177 3175 3177 3178 3178 3179 3181 3182 3183 3184 3185 3186 3187 3188 3190 3192 3193 3195 3197 3198 3200 3201 3201 3201 3202 3203 3203 3203 3202 3202 3201 3200 3199 3197 3195
3163 3167 3169 3169 3167 3167 3169 3169 3168 3170 3171 3172 3176 3176 3175 3175 3176 3177 3178 3180 3181 3183 3183 3184 3186 3187 3188 3189 3190 3192 3193 3195 3197 3198 3200 3201 3201 3201 3202 3203 3203 3203 3202 3201 3200 3200 3199 3198 3196
3162 3165 3168 3167 3167 3167 3167 3166 3168 3171 3171 3174 3175 3176 3175 3176 3177 3177 3179 3180 3182 3183 3184 3185 3186 3187 3188 3189 3190 3191 3193 3194 3196 3198 3200 3200 3201 3201 3201 3202 3203 3202 3202 3202 3201 3200 3200 3198 3197
3163 3164 3166 3165 3166 3165 3166 3166 3168 3171 3172 3172 3174 3175 3175 3176 3177 3178 3179 3180 3182 3183 3184 3185 3187 3188 3188 3188 3189 3190 3192 3193 3194 3196 3198 3199 3199 3200 3200 3200 3202 3202 3201 3202 3201 3200 3199 3198 3197
3162 3164 3163 3162 3165 3166 3166 3165 3168 3171 3172 3170 3171 3176 3175 3175 3176 3177 3179 3180 3182 3183 3184 3185 3186 3187 3188 3188 3189 3189 3190 3191 3193 3194 3195 3196 3197 3198 3198 3199 3200 3201 3200 3201 3201 3199 3198 3197 3197
3158 3162 3162 3163 3164 3165 3164 3165 3166 3168 3167 3169 3171 3175 3174 3174 3175 3177 3179 3180 3182 3183 3184 3185 3186 3187 3187 3188 3188 3188 3189 3189 3190 3192 3193 3194 3195 3195 3196 3197 3198 3199 3199 3200 3200 3199 3198 3197 3196
3156 3161 3160 3161 3163 3163 3162 3166 3164 3165 3167 3167 3168 3169 3169 3173 3175 3177 3179 3179 3180 3181 3182 3183 3184 3186 3186 3187 3187 3187 3187 3187 3188 3189 3190 3191 3192 3193 3194 3195 3196 3197 3198 3198 3199 3198 3197 3196 3196
3157 3158 3158 3159 3161 3162 3162 3163 3164 3166 3166 3167 3167 3168 3170 3171 3173 3176 3178 3180 3178 3179 3179 3180 3181 3182 3183 3184 3184 3184 3185 3185 3185 3186 3186 3188 3189 3190 3191 3192 3193 3194 3195 3196 3197 3197 3196 3195 3195
3154 3157 3154 3155 3157 3158 3160 3160 3161 3164 3166 3166 3167 3166 3167 3169 3171 3173 3175 3176 3179 3178 3176 3177 3178 3179 3180 3181 3181 3181 3182 3182 3183 3183 3183 3184 3185 3187 3188 3189 3190 3191 3192 3193 3194 3194 3195 3195 3194
3155 3152 3154 3154 3154 3156 3158 3159 3159 3160 3164 3160 3161 3162 3164 3166 3167 3168 3170 3172 3173 3172 3171 3172 3172 3174 3176 3176 3177 3178 3178 3178 3179 3179 3179 3180 3182 3183 3185 3186 3187 3188 3189 3190 3191 3191 3192 3192 3193
3152 3152 3151 3151 3152 3153 3154 3155 3156 3156 3156 3155 3157 3158 3159 3160 3161 3163 3163 3164 3165 3166 3166 3167 3167 3169 3170 3172 3172 3173 3174 3174 3174 3175 3175 3176 3177 3179 3181 3182 3184 3185 3185 3186 3187 3188 3189 3190 3190
3149 3150 3151 3150 3151 3150 3151 3153 3151 3153 3151 3152 3153 3154 3155 3155 3156 3156 3157 3158 3158 3159 3160 3161 3162 3163 3165 3166 3166 3167 3169 3169 3170 3171 3171 3171 3172 3174 3175 3177 3179 3181 3182 3182 3183 3184 3185 3186 3187
3147 3149 3149 3148 3149 3149 3149 3151 3149 3150 3148 3149 3150 3150 3150 3150 3151 3151 3152 3153 3153 3154 3155 3155 3156 3156 3158 3159 3160 3161 3162 3163 3164 3166 3167 3168 3168 3169 3170 3172 3174 3176 3178 3178 3179 3180 3181 3182 3183
3146 3147 3147 3146 3146 3146 3148 3147 3147 3146 3146 3146 3146 3146 3145 3146 3145 3146 3147 3148 3149 3150 3151 3151 3151 3151 3152 3153 3153 3155 3157 3158 3159 3161 3162 3163 3164 3164 3167 3168 3169 3170 3172 3175 3174 3176 3177 3178 3179
3144 3142 3144 3143 3143 3143 3144 3143 3143 3142 3141 3139 3138 3139 3139 3139 3138 3138 3140 3142 3144 3146 3147 3147 3148 3148 3149 3149 3150 3151 3152 3153 3154 3156 3157 3159 3158 3159 3161 3163 3164 3164 3166 3169 3171 3170 3173 3174 3174
3138 3140 3141 3141 3141 3139 3139 3138 3138 3138 3136 3134 3132 3132 3132 3132 3131 3130 3132 3135 3138 3141 3143 3144 3144 3145 3146 3147 3147 3147 3148 3150 3150 3151 3153 3154 3154 3155 3156 3158 3159 3158 3161 3163 3164 3166 3166 3169 3169
3138 3138 3138 3138 3137 3135 3134 3132 3132 3131 3130 3129 3126 3127 3127 3127 3125 3123 3123 3127 3132 3135 3138 3140 3141 3142 3143 3144 3145 3145 3145 3145 3146 3147 3148 3149 3150 3151 3151 3151 3151 3153 3155 3156 3157 3159 3161 3163 3164
3135 3134 3134 3134 3133 3131 3129 3125 3124 3123 3123 3123 3122 3122 3122 3122 3121 3120 3120 3122 3126 3130 3133 3135 3137 3139 3140 3141 3142 3142 3143 3143 3143 3144 3144 3145 3145 3146 3147 3148 3148 3149 3150 3152 3151 3153 3155 3156 3159
3131 3131 3130 3130 3129 3126 3123 3118 3115 3115 3115 3115 3115 3115 3116 3117 3117 3117 3118 3119 3121 3124 3128 3131 3133 3135 3137 3138 3139 3140 3140 3141 3141 3140 3140 3141 3141 3141 3142 3142 3143 3143 3143 3144 3147 3147 3149 3151 3156
3128 3128 3127 3126 3125 3121 3120 3112 3110 3110 3110 3108 3109 3110 3111 3111 3112 3112 3112 3114 3116 3118 3122 3125 3128 3130 3132 3134 3135 3136 3137 3138 3139 3138 3139 3137 3137 3137 3138 3138 3138 3138 3137 3138 3138 3139 3141 3143 3149
3124 3123 3123 3121 3119 3117 3115 3113 3103 3102 3102 3102 3104 3106 3106 3106 3107 3107 3108 3110 3112 3113 3116 3120 3123 3125 3127 3129 3130 3131 3132 3133 3134 3134 3133 3133 3133 3133 3133 3133 3132 3132 3132 3132 3133 3132 3134 3137 3138
3120 3119 3117 3116 3114 3106 3104 3104 3096 3096 3098 3100 3101 3101 3101 3102 3102 3103 3104 3106 3107 3110 3113 3116 3118 3120 3121 3123 3125 3126 3127 3128 3128 3128 3129 3128 3128 3128 3128 3127 3127 3127 3126 3127 3127 3127 3128 3129 3131
3115 3115 3109 3103 3100 3096 3097 3099 3094 3094 3095 3096 3097 3098 3097 3098 3099 3099 3101 3102 3103 3105 3108 3110 3112 3113 3115 3117 3119 3120 3121 3121 3122 3122 3122 3122 3122 3121 3120 3121 3121 3120 3120 3120 3120 3121 3122 3123 3123
3108 3109 3104 3094 3089 3086 3093 3090 3090 3089 3091 3092 3093 3094 3094 3094 3095 3096 3097 3098 3100 3102 3103 3105 3107 3108 3110 3111 3112 3113 3114 3114 3114 3114 3113 3114 3113 3113 3112 3113 3113 3113 3113 3113 3113 3113 3114 3116 3117
3104 3103 3103 3097 3093 3090 3086 3083 3083 3083 3086 3086 3087 3088 3089 3089 3089 3091 3092 3094 3095 3096 3098 3100 3101 3102 3103 3103 3104 3105 3105 3105 3105 3105 3105 3104 3105 3104 3103 3103 3103 3104 3104 3105 3105 3105 3106 3108 3109
3098 3099 3097 3095 3089 3080 3074 3074 3075 3077 3080 3082 3083 3083 3085 3084 3084 3085 3087 3088 3089 3090 3091 3092 3093 3094 3095 3095 3095 3096 3096 3096 3096 3096 3096 3096 3095 3095 3094 3093 3093 3093 3094 3095 3096 3097 3099 3100 3102
3091 3088 3088 3088 3083 3074 3068 3067 3069 3071 3075 3077 3078 3080 3080 3079 3081 3082 3081 3080 3081 3081 3083 3083 3084 3085 3086 3086 3087 3087 3087 3087 3087 3087 3087 3086 3086 3086 3085 3084 3083 3083 3083 3085 3086 3088 3090 3091 3094
3082 3080 3082 3081 3074 3073 3068 3058 3068 3070 3071 3072 3072 3073 3074 3074 3074 3075 3073 3072 3071 3072 3074 3074 3074 3076 3077 3076 3076 3076 3076 3077 3077 3078 3077 3076 3077 3076 3075 3074 3074 3074 3074 3075 3076 3077 3079 3082 3084